[[{"header":{"parameterUnit":"m.s-1","parameterCategory":1,"la1":30.2991,"la2":30.254,"lo1":-89.0895,"lo2":-89.0444,"dy":0.0017,"dx":0.0017,"nx":28,"ny":28,"refTime":"2024-07-28T09:00:00:Z","depth":0,"parameterNumber":2,"parameterNumberName":"U-component_of_WINDS"},"data":[0,0,0,0,0,0,0,0,0,0,0,0,0,0,0,0,0,0,0,0,0,0,0,0,0,0,0,0,0,0,0,0,0,0,0,0,0,0,0,0,0,0,0,0,0,0,0,0,0,0,0,0,0,0,0,0,0,0,1.1939,1.194,0,1.2033,1.2034,1.2035,1.2103,1.2104,1.2105,1.2105,1.2204,1.2206,1.2208,0,0,0,0,0,0,0,0,0,0,0,0,0,1.1823,1.1825,1.1939,1.1941,1.1942,1.2033,1.2034,1.2035,1.2103,1.2104,1.2105,1.2105,1.2204,1.2206,1.2209,0,0,0,0,0,0,0,0,0,0,0,0,0,1.1891,1.1825,1.1939,1.1987,1.1992,1.2033,1.2034,1.2036,1.2103,1.2104,1.2105,1.2106,1.2203,1.2206,1.2209,1.2211,0,0,1.2219,1.222,0,0,0,0,0,0,0,0,1.1887,1.1895,1.1978,1.1983,1.1989,1.2057,1.203,1.2095,1.2103,1.2061,1.2105,1.2106,1.2155,1.2162,1.2178,1.2216,1.222,1.2219,1.2221,1.2222,1.2223,0,0,0,0,0,0,0,1.1882,1.1891,1.1977,1.198,1.1986,1.2004,1.2015,1.2042,1.2102,1.2065,1.207,1.208,1.2158,1.2175,1.2181,1.2222,1.2219,1.2222,1.2224,1.2225,1.2267,1.2267,0,0,0,0,0,0,1.187,1.1887,1.1974,1.1979,1.1939,1.2006,1.2017,1.2035,1.2102,1.2113,1.2079,1.2083,1.2169,1.2177,1.2184,1.2192,1.2222,1.2225,1.2227,1.2268,1.2267,1.2266,0,0,0,0,0,0,1.1867,1.1877,1.197,1.1935,1.1948,1.2007,1.2026,1.2036,1.2053,1.2113,1.2124,1.2085,1.217,1.218,1.2204,1.2196,1.2227,1.2229,1.2269,1.2268,1.2267,1.2207,0,0,0,0,0,0,1.1863,1.1875,1.1876,1.1934,1.1949,1.1986,1.2025,1.2037,1.2058,1.2063,1.2121,1.2132,1.2171,1.2199,1.2207,1.2201,1.2232,1.227,1.2268,1.2267,1.2209,1.2203,1.2198,0,0,0,0,0,1.1859,1.1856,1.1875,1.1885,1.1951,1.1986,1.1995,1.204,1.2057,1.2058,1.2097,1.213,1.2196,1.2201,1.2211,1.2206,1.2271,1.2269,1.2267,1.2212,1.2205,1.2198,0,0,0,0,0,0,1.1796,1.1864,1.1887,1.1902,1.1938,1.1997,1.2001,1.203,1.2063,1.2067,1.2122,1.2135,1.2153,1.2182,1.2186,1.2212,1.2237,1.2238,1.2192,1.2186,1.218,1.2173,1.2235,0,0,0,0,0,1.1784,1.1805,1.1864,1.1872,1.1889,1.1941,1.1958,1.199,1.2029,1.2045,1.2085,1.2123,1.2152,1.2171,1.2201,1.2214,1.2228,1.2216,1.221,1.2205,1.2205,1.2214,1.221,1.2261,1.2261,1.2261,0,0,1.1759,1.1799,1.1809,1.186,1.1892,1.1913,1.1954,1.1975,1.1992,1.2048,1.2073,1.2104,1.215,1.2169,1.2179,1.2193,1.2194,1.2203,1.2198,1.2201,1.2212,1.2207,1.2203,1.2259,1.226,1.226,0,0,1.1725,1.1757,1.1768,1.1798,1.1844,1.1879,1.1881,1.1937,1.1959,1.1985,1.2028,1.205,1.2099,1.213,1.2152,1.213,1.2162,1.2139,1.211,1.2119,1.2115,1.2111,1.2104,1.2101,1.2138,1.2138,1.2138,0,1.1689,1.1722,1.1769,1.1788,1.181,1.1861,1.1872,1.19,1.1954,1.1968,1.1983,1.2046,1.2081,1.2108,1.2102,1.2119,1.2124,1.2133,1.2111,1.2108,1.2106,1.21,1.2097,1.2135,1.2135,1.2136,1.2136,0,1.1676,1.1699,1.1702,1.1751,1.1774,1.1789,1.1839,1.1856,1.1886,1.1919,1.1946,1.1989,1.2029,1.2038,1.2067,1.2069,1.2076,1.21,1.2127,1.2097,1.2092,1.209,1.2131,1.2132,1.2133,1.2133,0,0,1.1605,1.168,1.1681,1.1704,1.1759,1.1778,1.1796,1.1835,1.1848,1.1884,1.1901,1.1942,1.1964,1.199,1.2023,1.2031,1.2012,1.2055,1.2057,1.2045,1.2017,1.1998,1.1995,1.2033,1.2032,1.2032,1.2013,0,1.158,1.1613,1.1656,1.1676,1.1698,1.1747,1.1763,1.1798,1.1831,1.1855,1.1892,1.192,1.1947,1.1963,1.1973,1.2012,1.2007,1.2014,1.205,1.2051,1.2037,1.1992,1.1973,1.1952,1.2011,1.2011,1.2011,0,1.1555,1.1587,1.1608,1.1662,1.1673,1.1686,1.1725,1.1747,1.1789,1.1813,1.184,1.1876,1.1899,1.1923,1.1955,1.1959,1.1977,1.1998,1.1999,1.2004,1.2029,1.1996,1.1947,1.1944,1.2008,1.2008,1.2009,0,1.1501,1.155,1.1569,1.1588,1.165,1.1659,1.1685,1.1728,1.1749,1.1783,1.1797,1.1834,1.1854,1.1883,1.1928,1.1941,1.1956,1.1983,1.1977,1.1975,1.1978,1.1977,1.193,1.1988,1.1988,1.1988,1.1989,0,1.1468,1.148,1.1546,1.1558,1.1572,1.1622,1.1635,1.1667,1.1705,1.1724,1.1769,1.1787,1.1846,1.1871,1.1907,1.1929,1.1937,1.1957,1.1967,1.1954,1.1951,1.1966,1.1969,1.1988,1.1988,1.1988,1.1988,0,1.1411,1.1455,1.148,1.1537,1.1552,1.156,1.161,1.1624,1.1658,1.1683,1.1691,1.1747,1.1778,1.1827,1.1873,1.1897,1.1913,1.1929,1.1899,1.1904,1.1895,1.1895,1.1857,1.1855,1.1913,1.1912,1.1912,0,1.1387,1.1397,1.1455,1.1471,1.1496,1.1521,1.1542,1.1591,1.1612,1.1661,1.1669,1.1704,1.1735,1.1784,1.1829,1.1865,1.1881,1.1865,1.1887,1.1874,1.1882,1.1881,1.1882,1.186,1.1859,1.1859,1.1858,0,1.134,1.1362,1.139,1.1425,1.1449,1.148,1.1513,1.1523,1.1581,1.1601,1.1634,1.1658,1.1705,1.1739,1.1782,1.1811,1.1844,1.1851,1.1851,1.1838,1.182,1.183,1.1885,1.1852,1.1852,1.1853,1.1853,1.1853,1.1299,1.131,1.1353,1.1383,1.1413,1.1443,1.1458,1.1495,1.1523,1.1564,1.1593,1.1624,1.1667,1.1727,1.1754,1.178,1.1794,1.1795,1.1795,1.1794,1.179,1.1815,1.1788,1.1788,1.1788,1.1789,1.1789,0,1.1255,1.1285,1.1312,1.1356,1.138,1.1408,1.1447,1.1465,1.1491,1.1528,1.1557,1.1595,1.1629,1.1676,1.1714,1.1726,1.1742,1.1734,1.1734,1.174,1.1775,1.1771,1.172,1.172,1.172,1.172,1.172,1.172,1.1235,1.1255,1.1282,1.1318,1.1348,1.1378,1.1398,1.1426,1.1456,1.1495,1.1523,1.1554,1.1596,1.1637,1.1669,1.1683,1.1695,1.1682,1.17,1.1731,1.1738,1.1744,1.174,1.1684,1.1684,1.1664,1.1663,1.1663]},{"header":{"parameterUnit":"m.s-1","parameterCategory":1,"la1":30.2991,"la2":30.254,"lo1":-89.0895,"lo2":-89.0444,"dy":0.0017,"dx":0.0017,"nx":28,"ny":28,"refTime":"2024-07-28T09:00:00:Z","depth":0,"parameterNumber":3,"parameterNumberName":"V-component_of_WINDS"},"data":[0,0,0,0,0,0,0,0,0,0,0,0,0,0,0,0,0,0,0,0,0,0,0,0,0,0,0,0,0,0,0,0,0,0,0,0,0,0,0,0,0,0,0,0,0,0,0,0,0,0,0,0,0,0,0,0,0,0,2.4371,2.437,0,2.4268,2.4267,2.4266,2.4274,2.4275,2.4277,2.4278,2.4165,2.416,2.4156,0,0,0,0,0,0,0,0,0,0,0,0,0,2.4566,2.4562,2.4371,2.437,2.4369,2.4269,2.4267,2.4266,2.4273,2.4275,2.4277,2.4279,2.4166,2.4161,2.4155,0,0,0,0,0,0,0,0,0,0,0,0,0,2.4474,2.4561,2.4371,2.4361,2.4359,2.4269,2.4267,2.4265,2.4273,2.4275,2.4278,2.428,2.4168,2.4161,2.4155,2.4066,0,0,2.4134,2.4131,0,0,0,0,0,0,0,0,2.4479,2.4467,2.4363,2.4361,2.4359,2.4286,2.4294,2.4198,2.4272,2.4305,2.4278,2.4281,2.4203,2.4193,2.4169,2.4061,2.4056,2.4134,2.413,2.4127,2.4125,0,0,0,0,0,0,0,2.4485,2.4471,2.433,2.4362,2.4359,2.4358,2.4348,2.4276,2.4242,2.4303,2.4303,2.4291,2.4202,2.4175,2.4166,2.4055,2.4134,2.4128,2.4124,2.4121,2.3867,2.3865,0,0,0,0,0,0,2.4495,2.4476,2.4333,2.4327,2.4426,2.4353,2.4341,2.4307,2.4243,2.4235,2.4289,2.4292,2.4185,2.4174,2.4162,2.4053,2.4127,2.412,2.4117,2.387,2.3867,2.3864,0,0,0,0,0,0,2.4499,2.4483,2.4338,2.4402,2.4383,2.4347,2.4309,2.4304,2.4277,2.4233,2.4226,2.4269,2.4187,2.4171,2.409,2.4049,2.4117,2.4111,2.3873,2.3869,2.3865,2.3835,0,0,0,0,0,0,2.4505,2.4484,2.4452,2.4401,2.438,2.427,2.4306,2.43,2.4267,2.4269,2.4212,2.4204,2.4187,2.41,2.4084,2.4041,2.4106,2.3877,2.3871,2.3867,2.3839,2.383,2.3823,0,0,0,0,0,2.4512,2.4446,2.445,2.4433,2.434,2.4268,2.4255,2.424,2.4263,2.4229,2.4201,2.4206,2.4057,2.4092,2.4073,2.4028,2.3879,2.3873,2.3867,2.3843,2.3832,2.3823,0,0,0,0,0,0,2.449,2.4439,2.4443,2.436,2.4318,2.4269,2.4226,2.4229,2.4177,2.4182,2.4162,2.4149,2.4067,2.404,2.408,2.3938,2.3971,2.3961,2.3959,2.3948,2.394,2.3947,2.41,0,0,0,0,0,2.4476,2.4425,2.4382,2.4312,2.4291,2.4262,2.423,2.4222,2.4177,2.4159,2.4124,2.4078,2.4021,2.3983,2.3928,2.3836,2.3822,2.3796,2.3787,2.3781,2.3771,2.3719,2.3706,2.3844,2.3844,2.3844,0,0,2.4445,2.4411,2.4379,2.4306,2.4274,2.4218,2.4247,2.4187,2.4145,2.4149,2.4071,2.4044,2.3991,2.3904,2.3863,2.3878,2.3731,2.3773,2.3768,2.3762,2.3711,2.3698,2.3687,2.384,2.3841,2.3841,0,0,2.436,2.4331,2.4268,2.4235,2.4186,2.4167,2.4152,2.4103,2.4086,2.4008,2.4009,2.3958,2.386,2.3822,2.379,2.3691,2.3693,2.3673,2.3628,2.3577,2.3566,2.3557,2.3519,2.3506,2.3665,2.3665,2.3665,0,2.4327,2.4246,2.4235,2.4175,2.4142,2.4146,2.4081,2.4049,2.3983,2.3959,2.3977,2.3854,2.3819,2.3722,2.3698,2.3673,2.3653,2.3679,2.357,2.356,2.355,2.3514,2.35,2.3662,2.3663,2.3663,2.3663,0,2.4207,2.4151,2.4106,2.4045,2.4007,2.3945,2.3922,2.3884,2.3879,2.3858,2.3777,2.3735,2.3671,2.3648,2.3642,2.355,2.356,2.3575,2.3606,2.3535,2.3501,2.3487,2.3659,2.366,2.3661,2.3661,0,0,2.4103,2.4039,2.4022,2.3994,2.394,2.3895,2.3832,2.3772,2.3739,2.3694,2.3638,2.3556,2.3569,2.3532,2.3522,2.3478,2.34,2.3497,2.3495,2.3478,2.3293,2.3281,2.3266,2.3402,2.3399,2.3397,2.3297,0,2.4012,2.3903,2.3891,2.3793,2.3739,2.3743,2.3688,2.3647,2.3626,2.3575,2.355,2.3491,2.3514,2.3492,2.3448,2.3419,2.3362,2.3426,2.3347,2.3345,2.3358,2.3248,2.3235,2.3142,2.3284,2.3281,2.328,0,2.3889,2.3843,2.374,2.3694,2.3671,2.3622,2.3565,2.3518,2.3471,2.3458,2.3418,2.3414,2.3346,2.3383,2.3287,2.3331,2.3298,2.3279,2.3275,2.3265,2.3306,2.3233,2.3113,2.3098,2.3259,2.3261,2.3262,0,2.3822,2.3733,2.366,2.3636,2.3581,2.3546,2.352,2.3477,2.3441,2.3391,2.3367,2.3309,2.3277,2.3231,2.321,2.3239,2.3115,2.315,2.31,2.31,2.3071,2.3073,2.2942,2.3054,2.3054,2.3055,2.3055,0,2.3719,2.3655,2.3629,2.3584,2.3512,2.3498,2.3426,2.3402,2.3363,2.3311,2.331,2.3261,2.3237,2.3183,2.3166,2.3089,2.3074,2.306,2.3056,2.3059,2.306,2.3035,2.304,2.3051,2.3052,2.3052,2.3053,0,2.363,2.361,2.353,2.3485,2.3472,2.3421,2.338,2.3335,2.3315,2.3249,2.3232,2.3199,2.3136,2.3112,2.3033,2.3022,2.2932,2.2934,2.2948,2.2946,2.2896,2.2901,2.2743,2.272,2.2849,2.2848,2.2847,0,2.3564,2.3516,2.3466,2.3432,2.3407,2.3352,2.3317,2.3301,2.3264,2.3207,2.3168,2.3106,2.3055,2.2953,2.292,2.286,2.2859,2.2808,2.285,2.2854,2.2855,2.2858,2.2852,2.2799,2.2798,2.2797,2.2796,0,2.3449,2.3442,2.3393,2.3339,2.3298,2.3254,2.3212,2.3184,2.3161,2.3119,2.3056,2.3016,2.2938,2.2875,2.2813,2.2784,2.2785,2.2784,2.2768,2.277,2.2779,2.2771,2.2924,2.2787,2.2788,2.2788,2.2789,2.2789,2.3368,2.3325,2.3283,2.3228,2.3195,2.3155,2.3111,2.3086,2.3034,2.297,2.2964,2.2895,2.2848,2.2766,2.2735,2.2679,2.2692,2.2671,2.2665,2.2659,2.2655,2.2791,2.2668,2.2668,2.2668,2.2669,2.2669,0,2.3251,2.3225,2.3175,2.3117,2.3072,2.3081,2.3035,2.2996,2.2937,2.2895,2.2845,2.2772,2.2711,2.2674,2.2612,2.2575,2.2573,2.2559,2.256,2.2553,2.2647,2.2666,2.2561,2.2561,2.2561,2.2561,2.2561,2.2561,2.3185,2.3112,2.31,2.301,2.2983,2.2918,2.2891,2.2853,2.282,2.2739,2.2689,2.2667,2.2626,2.2562,2.2505,2.2496,2.2472,2.2456,2.2447,2.2535,2.2546,2.2557,2.2574,2.2451,2.2451,2.2357,2.2356,2.2355]}]]